TimeMST,TemperatureF,Dew PointF,Humidity,Sea Level PressureIn,VisibilityMPH,Wind Direction,Wind SpeedMPH,Gust SpeedMPH,PrecipitationIn,Events,Conditions,WindDirDegrees,DateUTC
12:53 AM,30.9,18.0,59,29.93,10.0,SSW,10.4,-,N/A,,Overcast,200,2012-12-07 07:53:00
1:53 AM,30.9,17.1,57,29.91,10.0,SW,12.7,-,N/A,,Mostly Cloudy,220,2012-12-07 08:53:00
2:53 AM,32.0,18.0,56,29.91,10.0,SSW,11.5,-,N/A,,Overcast,210,2012-12-07 09:53:00
3:53 AM,33.1,19.0,56,29.89,10.0,SW,12.7,-,N/A,,Overcast,220,2012-12-07 10:53:00
4:53 AM,33.8,19.4,56,29.79,10.0,SW,11.5,-,N/A,,Overcast,230,2012-12-07 11:53:00
5:53 AM,30.0,19.0,64,29.92,10.0,SW,11.5,-,N/A,,Scattered Clouds,230,2012-12-07 12:53:00
6:53 AM,30.0,19.0,64,29.94,10.0,WSW,15.0,-,N/A,,Clear,240,2012-12-07 13:53:00
7:53 AM,30.0,19.9,66,29.95,10.0,SW,13.8,-,N/A,,Partly Cloudy,230,2012-12-07 14:53:00
8:53 AM,28.0,19.9,72,29.96,10.0,SW,9.2,-,N/A,,Clear,230,2012-12-07 15:53:00
9:53 AM,33.1,21.9,64,29.95,10.0,WSW,9.2,-,N/A,,Clear,240,2012-12-07 16:53:00
10:53 AM,37.0,17.1,44,29.94,10.0,WSW,20.7,-,N/A,,Clear,240,2012-12-07 17:53:00
11:53 AM,39.0,14.0,36,29.92,10.0,West,21.9,29.9,N/A,,Clear,260,2012-12-07 18:53:00
12:53 PM,39.0,12.9,34,29.89,10.0,WSW,18.4,-,N/A,,Clear,250,2012-12-07 19:53:00
1:53 PM,39.0,14.0,36,29.86,10.0,SW,17.3,-,N/A,,Clear,230,2012-12-07 20:53:00
2:53 PM,37.9,15.1,39,29.84,10.0,SW,8.1,-,N/A,,Scattered Clouds,220,2012-12-07 21:53:00
3:53 PM,36.0,15.1,43,29.81,10.0,South,5.8,-,N/A,,Overcast,190,2012-12-07 22:53:00
4:53 PM,36.0,16.0,44,29.78,10.0,SW,9.2,-,N/A,,Mostly Cloudy,220,2012-12-07 23:53:00
5:53 PM,37.4,15.8,41,29.65,10.0,SW,10.4,-,N/A,,Overcast,220,2012-12-08 00:53:00
6:53 PM,33.1,17.1,52,29.72,10.0,South,9.2,-,N/A,,Partly Cloudy,190,2012-12-08 01:53:00
7:53 PM,35.1,19.9,54,29.69,10.0,SW,12.7,-,N/A,,Clear,220,2012-12-08 02:53:00
8:53 PM,35.1,21.9,59,29.67,10.0,SW,17.3,-,N/A,,Scattered Clouds,230,2012-12-08 03:53:00
9:53 PM,33.1,21.9,64,29.65,10.0,WSW,9.2,-,N/A,,Mostly Cloudy,240,2012-12-08 04:53:00
10:53 PM,28.9,23.0,78,29.66,10.0,West,16.1,-,N/A,,Partly Cloudy,270,2012-12-08 05:53:00
11:53 PM,28.9,25.0,85,29.67,10.0,West,8.1,-,N/A,,Overcast,260,2012-12-08 06:53:00